Location: Ferchesar
(52.6477°N, 12.4298°E)
Time: 05:09:30
(UTC+02:00)

Vanguard 3 - Pass Details

Date: 27 February 2021
Orbit: 508 x 3262 km, 33.3° (Epoch: 15 April)

Event Time Altitude Azimuth Distance (km) Brightness Sun altitude
Rises 18:48:08 0° 247° (WSW) 6,549 13.2 -10.2°
Reaches altitude 10° 18:53:54 10° 237° (WSW) 5,094 12.1 -11.1°
Maximum altitude 19:04:05 26° 190° (S) 3,022 10.1 -12.6°
Drops below altitude 10° 19:10:56 10° 138° (SE) 3,312 9.8 -13.7°
Enters shadow 19:11:38 - 134° (SE) 3,447 9.9 -13.8°
Sets 19:13:47 0° 125° (SE) 3,937 - -14.1°
